Location: NJAA Observatory
(40.6819°N, 74.8979°W)
Time: 06:23:03
(UTC-04:00)

Iridium 84 - Visible Passes

Search period start: 28 July 2015 00:00
Search period end: 07 August 2015 00:00
Orbit: 776 x 779 km, 86.4° (Epoch: 27 July)

Date Brightness Start Highest point End Pass type
(mag) Time Alt. Az. Time Alt. Az. Time Alt. Az.
28 Jul 5.7 22:50:47 48° ESE 22:51:15 50° E 22:56:17 10° NNE visible
29 Jul 7.5 00:31:15 18° W 00:32:22 18° WNW 00:35:52 10° NNW visible
29 Jul 6.6 22:17:13 26° E 22:17:52 27° E 22:22:16 10° NNE visible
29 Jul 6.7 23:57:40 31° W 23:58:31 33° W 00:03:11 10° NNW visible
30 Jul 7.3 21:43:38 14° E 21:44:35 15° E 21:47:34 10° NE visible
30 Jul 5.8 23:24:05 55° WSW 23:24:50 61° W 23:30:00 10° N visible
31 Jul 5.4 22:50:29 61° SSE 22:51:18 73° E 22:56:31 10° N visible
01 Aug 8.0 00:30:57 11° W 00:32:45 13° WNW 00:34:53 10° NW visible
01 Aug 6.1 22:16:53 35° ESE 22:17:52 39° E 22:22:43 10° NNE visible
01 Aug 7.3 23:57:20 21° W 23:58:47 23° WNW 00:02:51 10° NNW visible
02 Aug 6.8 21:43:15 20° ESE 21:44:32 22° E 21:48:30 10° NNE visible
02 Aug 6.5 23:23:43 36° WSW 23:25:00 42° W 23:29:56 10° NNW visible
03 Aug 7.5 21:09:44 10° E 21:11:17 12° ENE 21:13:08 10° ENE visible
03 Aug 5.5 22:50:05 51° SSW 22:51:24 78° W 22:56:38 10° N visible
04 Aug 5.6 22:16:25 41° SE 22:17:54 57° E 22:23:01 10° N visible
04 Aug 7.8 23:56:52 13° WSW 23:59:08 16° WNW 00:02:15 10° NW visible
05 Aug 6.4 21:42:45 25° ESE 21:44:30 31° E 21:49:04 10° NNE visible
05 Aug 7.1 23:23:12 23° WSW 23:25:14 29° WNW 23:29:44 10° NNW visible
06 Aug 7.1 21:09:03 13° ESE 21:11:12 17° E 21:14:35 10° NE visible
06 Aug 6.1 22:49:30 34° SW 22:51:32 54° W 22:56:38 10° N visible
